[[{"header":{"parameterUnit":"m.s-1","parameterCategory":1,"la1":30.2991,"la2":30.254,"lo1":-89.0895,"lo2":-89.0444,"dy":0.0017,"dx":0.0017,"nx":28,"ny":28,"refTime":"2024-05-27T09:00:00:Z","depth":0,"parameterNumber":2,"parameterNumberName":"U-component_of_WINDS"},"data":[0,0,0,0,0,0,0,0,0,0,0,0,0,0,0,0,0,0,0,0,0,0,0,0,0,0,0,0,0,0,0,0,0,0,0,0,0,0,0,0,0,0,0,0,0,0,0,0,0,0,0,0,0,0,0,0,0,0,3.3077,3.3077,0,3.3125,3.3125,3.3126,3.3087,3.3085,3.3084,3.3082,3.313,3.3133,3.3136,0,0,0,0,0,0,0,0,0,0,0,0,0,3.2948,3.295,3.3077,3.3077,3.3078,3.3125,3.3125,3.3126,3.3087,3.3085,3.3083,3.3081,3.313,3.3133,3.3136,0,0,0,0,0,0,0,0,0,0,0,0,0,3.3,3.2951,3.3076,3.3064,3.3063,3.3124,3.3125,3.3126,3.3088,3.3085,3.3083,3.308,3.3128,3.3133,3.3137,3.3212,0,0,3.315,3.3151,0,0,0,0,0,0,0,0,3.2998,3.3005,3.3065,3.3065,3.3064,3.3097,3.3097,3.3155,3.3088,3.3078,3.3082,3.3079,3.3121,3.3126,3.314,3.3214,3.3216,3.315,3.3153,3.3154,3.3156,0,0,0,0,0,0,0,3.2994,3.3003,3.3095,3.3066,3.3066,3.3055,3.306,3.3108,3.3113,3.3079,3.3076,3.3083,3.3121,3.3136,3.3141,3.3217,3.315,3.3154,3.3156,3.3158,3.335,3.3353,0,0,0,0,0,0,3.2992,3.3,3.3094,3.3097,3.3024,3.3059,3.3065,3.3089,3.3112,3.3114,3.3085,3.3081,3.313,3.3136,3.3143,3.3229,3.3154,3.3158,3.3161,3.3348,3.3351,3.3354,0,0,0,0,0,0,3.2989,3.3001,3.3092,3.3048,3.3059,3.3064,3.3092,3.3091,3.3107,3.3117,3.3117,3.31,3.3129,3.3137,3.3194,3.323,3.316,3.3164,3.3345,3.3349,3.3352,3.3404,0,0,0,0,0,0,3.2986,3.3,3.303,3.3049,3.3061,3.3144,3.3094,3.3094,3.3115,3.311,3.3131,3.3132,3.3127,3.3188,3.3198,3.3235,3.3167,3.3341,3.3346,3.3351,3.3399,3.3409,3.3418,0,0,0,0,0,3.2981,3.3043,3.3031,3.3043,3.3099,3.3146,3.3153,3.3146,3.3118,3.3147,3.3152,3.3132,3.3225,3.3194,3.3205,3.3244,3.3339,3.3345,3.3351,3.3395,3.3407,3.3418,0,0,0,0,0,0,3.3029,3.3046,3.3033,3.3103,3.3123,3.3139,3.3176,3.316,3.3189,3.3183,3.3173,3.3178,3.3237,3.3247,3.3212,3.3315,3.3277,3.3286,3.3307,3.3319,3.3328,3.3324,3.3171,0,0,0,0,0,3.3048,3.3085,3.3098,3.3158,3.3169,3.3171,3.3191,3.3184,3.3205,3.3213,3.3223,3.3243,3.3276,3.3298,3.333,3.3401,3.3403,3.3432,3.3442,3.3449,3.3456,3.349,3.3502,3.3373,3.3373,3.3372,0,0,3.3087,3.31,3.3125,3.3168,3.3183,3.322,3.3178,3.3221,3.3248,3.3219,3.3273,3.3281,3.3302,3.3365,3.3394,3.3375,3.3492,3.3457,3.3463,3.3465,3.3497,3.3509,3.352,3.3377,3.3376,3.3375,0,0,3.3176,3.3192,3.3242,3.3257,3.3279,3.328,3.3292,3.331,3.3313,3.3367,3.3345,3.3377,3.3436,3.345,3.3466,3.3557,3.3538,3.3568,3.3616,3.3649,3.366,3.3668,3.3698,3.3709,3.3575,3.3575,3.3575,0,3.3221,3.3278,3.327,3.3312,3.333,3.3306,3.3355,3.337,3.3402,3.3414,3.3393,3.3463,3.3476,3.354,3.3562,3.3577,3.3588,3.3565,3.3659,3.3668,3.3676,3.3703,3.3715,3.3578,3.3578,3.3578,3.3577,0,3.333,3.337,3.3407,3.3437,3.346,3.3506,3.3503,3.3526,3.3517,3.3518,3.3571,3.3586,3.3618,3.3633,3.3625,3.3695,3.3682,3.3661,3.3621,3.3692,3.3717,3.3728,3.3583,3.3582,3.3581,3.358,0,0,3.3452,3.3474,3.3488,3.3499,3.3521,3.355,3.3594,3.3625,3.3644,3.3666,3.37,3.3749,3.3728,3.3745,3.3738,3.3768,3.3834,3.3741,3.3741,3.3755,3.3908,3.3922,3.3935,3.3822,3.3824,3.3826,3.3905,0,3.3539,3.3615,3.3607,3.3678,3.3712,3.3687,3.3725,3.3741,3.3744,3.3772,3.3774,3.3808,3.3779,3.3788,3.3817,3.382,3.3864,3.3815,3.3852,3.3853,3.3844,3.3949,3.3965,3.4039,3.3916,3.3917,3.3919,0,3.3651,3.3675,3.375,3.3762,3.3776,3.381,3.3836,3.3864,3.3881,3.388,3.3898,3.3885,3.3926,3.3888,3.3943,3.391,3.3924,3.3928,3.3931,3.3932,3.3888,3.395,3.4063,3.4073,3.3935,3.3934,3.3932,0,3.3727,3.3779,3.3829,3.384,3.3857,3.3881,3.3889,3.3904,3.3921,3.3944,3.3954,3.3982,3.3996,3.4017,3.4011,3.3984,3.4066,3.4028,3.4064,3.4065,3.4081,3.408,3.4195,3.4096,3.4096,3.4096,3.4095,0,3.3824,3.387,3.3863,3.3893,3.3942,3.3932,3.3981,3.3986,3.3999,3.4028,3.401,3.4038,3.4029,3.4056,3.4052,3.4096,3.4104,3.4102,3.41,3.4102,3.4102,3.411,3.4103,3.4098,3.4098,3.4097,3.4097,0,3.3917,3.3915,3.3966,3.3978,3.3981,3.4017,3.4025,3.4053,3.4053,3.4091,3.4099,3.4099,3.4129,3.4126,3.4161,3.4157,3.4211,3.4204,3.4205,3.4202,3.4237,3.4233,3.436,3.4374,3.4269,3.427,3.4271,0,3.3977,3.4011,3.4025,3.4043,3.4052,3.4082,3.41,3.4091,3.4109,3.4129,3.4154,3.4182,3.4205,3.4254,3.4257,3.4282,3.4274,3.4317,3.4278,3.4278,3.427,3.4267,3.4269,3.4323,3.4325,3.4326,3.4327,0,3.4083,3.408,3.4105,3.413,3.415,3.417,3.4187,3.4203,3.4195,3.4217,3.4247,3.4264,3.4298,3.4326,3.4349,3.4356,3.4339,3.4339,3.4348,3.4349,3.4347,3.4345,3.4222,3.4336,3.4335,3.4334,3.4334,3.4333,3.4159,3.4187,3.4199,3.4228,3.4239,3.4255,3.428,3.4282,3.4308,3.4334,3.4327,3.4361,3.4374,3.4403,3.4413,3.4438,3.4422,3.4436,3.4439,3.4442,3.4444,3.4345,3.4443,3.4442,3.4442,3.4442,3.4442,0,3.4261,3.4268,3.4294,3.4317,3.4338,3.4321,3.4338,3.4356,3.4386,3.44,3.4421,3.4454,3.448,3.4484,3.4509,3.4528,3.452,3.4534,3.4531,3.4532,3.4459,3.4447,3.4539,3.4539,3.4539,3.4539,3.4539,3.4539,3.4316,3.436,3.4358,3.4406,3.4412,3.4444,3.4455,3.4468,3.4478,3.4516,3.4537,3.4539,3.4548,3.4572,3.4595,3.4595,3.4603,3.4619,3.4617,3.4548,3.4538,3.4528,3.4517,3.4622,3.4622,3.4687,3.4688,3.4688]},{"header":{"parameterUnit":"m.s-1","parameterCategory":1,"la1":30.2991,"la2":30.254,"lo1":-89.0895,"lo2":-89.0444,"dy":0.0017,"dx":0.0017,"nx":28,"ny":28,"refTime":"2024-05-27T09:00:00:Z","depth":0,"parameterNumber":3,"parameterNumberName":"V-component_of_WINDS"},"data":[0,0,0,0,0,0,0,0,0,0,0,0,0,0,0,0,0,0,0,0,0,0,0,0,0,0,0,0,0,0,0,0,0,0,0,0,0,0,0,0,0,0,0,0,0,0,0,0,0,0,0,0,0,0,0,0,0,0,4.9169,4.917,0,4.9277,4.9278,4.9279,4.9252,4.925,4.9248,4.9246,4.9352,4.9356,4.9361,0,0,0,0,0,0,0,0,0,0,0,0,0,4.893,4.8935,4.9169,4.917,4.9171,4.9277,4.9278,4.928,4.9253,4.925,4.9247,4.9245,4.935,4.9356,4.9361,0,0,0,0,0,0,0,0,0,0,0,0,0,4.9036,4.8936,4.9168,4.9171,4.9172,4.9277,4.9278,4.928,4.9253,4.925,4.9247,4.9244,4.9348,4.9355,4.9362,4.9469,0,0,4.9384,4.9387,0,0,0,0,0,0,0,0,4.903,4.9044,4.9169,4.9171,4.9172,4.9248,4.9233,4.9343,4.9254,4.9222,4.9246,4.9242,4.9319,4.9329,4.9356,4.9474,4.9479,4.9385,4.9389,4.9392,4.9394,0,0,0,0,0,0,0,4.9022,4.9039,4.9211,4.9171,4.9173,4.9164,4.9175,4.9254,4.9287,4.9225,4.9223,4.9236,4.9319,4.9349,4.9358,4.948,4.9384,4.9391,4.9395,4.9398,4.9688,4.9691,0,0,0,0,0,0,4.9015,4.9034,4.9208,4.9215,4.9092,4.917,4.9183,4.9227,4.9286,4.9292,4.9239,4.9235,4.9338,4.935,4.9362,4.9489,4.9392,4.9399,4.9403,4.9685,4.9689,4.9693,0,0,0,0,0,0,4.901,4.903,4.9203,4.9124,4.9145,4.9178,4.9227,4.9231,4.926,4.9297,4.9302,4.9264,4.9336,4.9351,4.9442,4.9492,4.9402,4.9408,4.9681,4.9686,4.9691,4.9745,0,0,0,0,0,0,4.9003,4.9029,4.9072,4.9125,4.9149,4.9285,4.923,4.9235,4.9273,4.9269,4.9321,4.9327,4.9335,4.9432,4.9449,4.95,4.9414,4.9676,4.9683,4.9689,4.9739,4.9752,4.9762,0,0,0,0,0,4.8995,4.9083,4.9075,4.9096,4.9205,4.9288,4.9302,4.9311,4.9277,4.9319,4.9342,4.9325,4.9484,4.9441,4.9461,4.9515,4.9673,4.9681,4.9689,4.9734,4.9749,4.9762,0,0,0,0,0,0,4.9034,4.909,4.9081,4.919,4.9235,4.9283,4.9337,4.9327,4.9381,4.9374,4.9381,4.9393,4.9485,4.9509,4.9461,4.9619,4.9573,4.9585,4.9601,4.9616,4.9627,4.9619,4.942,0,0,0,0,0,4.9055,4.9121,4.9165,4.9256,4.9279,4.9304,4.9341,4.9344,4.939,4.9408,4.9438,4.9481,4.954,4.958,4.9636,4.9742,4.9751,4.9788,4.98,4.9809,4.9819,4.9873,4.989,4.9718,4.9718,4.9718,0,0,4.91,4.9139,4.918,4.9265,4.93,4.9365,4.9321,4.9392,4.9439,4.9418,4.9506,4.9529,4.9577,4.9676,4.972,4.9698,4.9869,4.9819,4.9826,4.9831,4.9883,4.9899,4.9914,4.9723,4.9722,4.9721,0,0,4.9214,4.9252,4.933,4.9366,4.942,4.9435,4.9454,4.9504,4.9519,4.9607,4.9592,4.9647,4.975,4.9784,4.9815,4.9939,4.9923,4.9957,5.0017,5.007,5.0083,5.0095,5.0137,5.0152,4.9967,4.9967,4.9967,0,4.9263,4.9362,4.9372,4.9444,4.948,4.9465,4.9543,4.9577,4.9645,4.967,4.9644,4.9771,4.9803,4.9907,4.9937,4.9963,4.9982,4.9951,5.0081,5.0093,5.0104,5.0144,5.016,4.997,4.997,4.997,4.9969,0,4.9417,4.9486,4.9543,4.9611,4.9653,4.9728,4.9746,4.9787,4.9786,4.9803,4.989,4.9928,4.999,5.0015,5.0015,5.0119,5.0103,5.0079,5.0033,5.0124,5.0161,5.0176,4.9975,4.9974,4.9973,4.9972,0,0,4.9561,4.9632,4.9652,4.9681,4.9738,4.979,4.9862,4.9924,4.9958,5.0005,5.0064,5.015,5.0127,5.0162,5.0164,5.0211,5.0303,5.0181,5.0182,5.0201,5.0416,5.0433,5.045,5.0293,5.0296,5.0299,5.0411,0,4.9679,4.9808,4.9817,4.9933,4.9994,4.9979,5.0041,5.0081,5.0098,5.0151,5.0169,5.0229,5.0196,5.0216,5.0262,5.0282,5.0346,5.0274,5.0345,5.0347,5.0332,5.047,5.0489,5.0593,5.0426,5.0429,5.0431,0,4.9835,4.9887,5.0009,5.0054,5.008,5.0136,5.0192,5.0243,5.0286,5.0295,5.0333,5.0328,5.0398,5.035,5.0445,5.0396,5.0424,5.0438,5.0443,5.0448,5.0394,5.0478,5.0627,5.0642,5.0454,5.0452,5.045,0,4.9924,5.0025,5.011,5.0136,5.0191,5.023,5.0255,5.0295,5.0331,5.0379,5.0401,5.0457,5.0486,5.0528,5.0536,5.0501,5.063,5.0583,5.0637,5.0637,5.0664,5.0662,5.0819,5.0686,5.0686,5.0685,5.0685,0,5.0054,5.0129,5.0151,5.0203,5.0285,5.0292,5.0372,5.0394,5.0429,5.0483,5.0473,5.0523,5.0532,5.0583,5.059,5.0666,5.068,5.0686,5.0687,5.0687,5.0686,5.0705,5.0697,5.0689,5.0689,5.0688,5.0687,0,5.0168,5.0187,5.0278,5.0322,5.0335,5.0393,5.043,5.0478,5.0493,5.0561,5.0577,5.06,5.066,5.0672,5.0743,5.0747,5.0836,5.0831,5.0822,5.0821,5.0873,5.0868,5.1047,5.1069,5.0923,5.0925,5.0926,0,5.025,5.0307,5.0357,5.0393,5.0419,5.0478,5.0514,5.0522,5.056,5.0612,5.0653,5.0711,5.0759,5.0853,5.0875,5.0927,5.0921,5.098,5.0929,5.0926,5.092,5.0916,5.092,5.099,5.0992,5.0993,5.0994,0,5.0391,5.0396,5.045,5.0507,5.055,5.0595,5.0637,5.0666,5.068,5.0722,5.0783,5.082,5.0891,5.0948,5.1,5.1022,5.1009,5.101,5.1025,5.1024,5.1016,5.1019,5.0847,5.1006,5.1004,5.1004,5.1003,5.1002,5.049,5.0538,5.0581,5.064,5.0672,5.0711,5.0758,5.0779,5.0831,5.089,5.0891,5.0957,5.0995,5.1064,5.1089,5.1138,5.1119,5.1142,5.1147,5.1152,5.1156,5.1009,5.1148,5.1148,5.1147,5.1147,5.1147,0,5.0629,5.0655,5.0709,5.0768,5.0814,5.08,5.0844,5.0883,5.0941,5.0979,5.1025,5.1093,5.1147,5.1172,5.1225,5.126,5.1255,5.1273,5.127,5.1274,5.1171,5.1152,5.1276,5.1276,5.1276,5.1276,5.1276,5.1276,5.0706,5.0787,5.0797,5.0892,5.0917,5.0983,5.1009,5.1043,5.1073,5.115,5.1195,5.1212,5.1243,5.1297,5.1345,5.1351,5.137,5.139,5.1393,5.1295,5.1282,5.127,5.1252,5.1395,5.1395,5.1492,5.1493,5.1494]}]]